Regional Weather Roundup
Issued by NWS Green Bay, WI

Home | Current Version | Previous Version | Graphics & Text | Print | Product List | Glossary Off
Versions: 1 2 3 4 5 6 7 8 9 10 11 12 13 14 15 16 17 18 19 20 21 22 23 24 25 26 27 28 29 30 31 32 33 34 35 36 37 38 39 40 41 42 43 44 45 46 47 48 49 50

000
ASUS43 KGRB 190410
RWRGRB

NORTH-CENTRAL AND NORTHEAST WISCONSIN REGIONAL WEATHER ROUNDUP
NATIONAL WEATHER SERVICE GREEN BAY WI
1100 PM CDT THU SEP 18 2014

WIZ005-009-010>012-018-019-190500-
NORTH CENTRAL WISCONSIN

CITY           SKY/WX    TMP DP  RH WIND       PRES   REMARKS
IRONWOOD       CLEAR     52  48  87 S13G22    30.03F
MANITOWISH WTR CLEAR     48  48  99 S7        30.10S
ARBOR VITAE    CLEAR     52  49  91 S6        30.11S
EAGLE RIVER    CLEAR     46  46 100 S3        30.13R
LAND O LAKES   CLEAR     46  45  98 CALM      30.13S
RHINELANDER    CLEAR     46  45  96 SE5       30.14S
PHILLIPS       CLEAR     48  47  94 SE8       30.09F
ANTIGO         CLEAR     45  45  98 S8        30.15F FOG
TOMAHAWK       CLEAR     46  45  97 CALM      30.13S FOG
MERRILL        CLEAR     48  47  97 SE6       30.13F
$$

WIZ013-073-190500-
NORTHEAST WISCONSIN

CITY           SKY/WX    TMP DP  RH WIND       PRES   REMARKS
IRON MOUNTAIN  CLEAR     44  42  93 SE3       30.15S
MARINETTE      CLEAR     45  43  93 CALM      30.17S
OCONTO         CLEAR     43  43 100 CALM      30.17S
$$

WIZ017-030-035>037-045-190500-
CENTRAL WISCONSIN

CITY           SKY/WX    TMP DP  RH WIND       PRES   REMARKS
MEDFORD        CLEAR     48  47  96 SE7       30.12S
WAUSAU         CLEAR     46  45  96 SE6       30.13F
MOSINEE        CLEAR     45  45 100 E7        30.14F FOG
MARSHFIELD     CLEAR     50  48  93 SE6       30.13S
WISC RAPIDS    CLEAR     50  48  93 SE7       30.14F
STEVENS POINT  CLEAR     43  43  98 CALM      30.15S FOG
WAUPACA        CLEAR     49  48  95 E3        30.16S FOG
SHAWANO        CLEAR     47  45  93 CALM      30.17S
CLINTONVILLE   CLEAR     45  45 100 CALM      30.16S FOG
$$

WIZ038-039-048-051-190500-
FOX VALLEY

CITY           SKY/WX    TMP DP  RH WIND       PRES   REMARKS
NWS GREEN BAY  CLEAR     45  44  97 CALM      30.17S FOG
APPLETON       PTCLDY    50  46  87 SE7       30.17R
OSHKOSH        CLEAR     49  47  93 SE3       30.16S
FOND DU LAC    CLEAR     49  46  90 SE6       30.17S
$$

WIZ022-050-052-190500-
EAST CENTRAL WISCONSIN

CITY           SKY/WX    TMP DP  RH WIND       PRES   REMARKS
STURGEON BAY   CLEAR     45  41  87 CALM      30.19R
MANITOWOC      CLEAR     45  44  97 CALM      30.18R
SHEBOYGAN      CLEAR     44  42  93 CALM      30.18R
$$

LMZ563-521-522-541>543-190500-
LAKESHORE

STATION/POSITION TIME  TEMP    WIND        PRES    VSBY  WAVE
                       AIR SEA DIR/SP/G                  HT/PER
                 (UTC) (F)     (DEG/KT/KT) (MB)    (MI)  (FT/S)
SHEBOYGAN LKSHOR 0400   51 49  340/  1/  2 1022.5R
KEWAUNEE LKSHORE 0400   48                 1021.0R
NORTHPORT PIER   0400   51     160/  3/  4 1022.0R
N MID LAKE BUOY  0400   55 58  140/  6/  8 1022.3R         0
CHAMBERS ISLAND  0400   46     140/  2/  4 1022.4R
MENOMINEE LKSHOR 0400   53                 1022.3R
$$



USA.gov is the U.S. government's official web portal to all federal, state and local government web resources and services.